Regional Weather Roundup
Issued by NWS Newport/Morehead, NC

Current Version | Previous Version | Text Only | Print | Product List | Glossary On
Versions: 1 2 3 4 5 6 7 8 9 10 11 12 13 14 15 16 17 18 19 20 21 22 23 24 25 26 27 28 29 30 31 32 33 34 35 36 37 38 39 40 41 42 43 44 45 46 47 48 49 50
000 ASUS42 KMHX 230225 RWRMHX WEATHER ROUNDUP FOR EASTERN NORTH CAROLINA NATIONAL WEATHER SERVICE NEWPORT/MOREHEAD CITY NC 900 PM EST WED NOV 22 2017 NOTE: "FAIR" INDICATES FEW OR NO CLOUDS BELOW 12,000 FEET WITH NO SIGNIFICANT WEATHER AND/OR OBSTRUCTIONS TO VISIBILITY NCZ015>017-031-032-045>047-102-103-230300- NORTH COAST CITY SKY/WX TMP DP RH WIND PRES REMARKS EDENTON CLEAR 49 38 64 CALM 30.11R ELIZABETH CITY PTCLDY 50 37 61 N14 30.10R KITTY HAWK CLEAR 52 40 63 N10G16 30.08R MANTEO CLEAR 51 41 68 NE14G21 30.10R $$ NCZ045>047-081-094-103-104-230300- CENTRAL COAST CITY SKY/WX TMP DP RH WIND PRES REMARKS FRISCO CLEAR 55 47 74 NE13G21 30.07R $$ NCZ095-097-098-100-101-230300- SOUTHERN COAST CITY SKY/WX TMP DP RH WIND PRES REMARKS BEAUFORT CLEAR 52 49 89 NE3 30.07R CEDAR ISLAND NOT AVBL JACKSONVILLE PTCLDY 53 42 66 N8 30.07R PINEY ISLAND NOT AVBL WILMINGTON PTCLDY 54 39 57 N8 30.07R $$ NCZ011>013-027>030-043-044-078>080-089-090>093-098-230300- COASTAL PLAIN CITY SKY/WX TMP DP RH WIND PRES REMARKS AHOSKIE CLEAR 47 31 53 N13 30.13R CLINTON CLEAR 51 36 56 N5 30.10R ELIZABETHTOWN NOT AVBL GOLDSBORO CLEAR 51 34 52 NW6 30.07R GREENVILLE CLEAR 39 36 87 N3 30.11R HAVELOCK NOT AVBL KENANSVILLE CLEAR 43 37 81 NW5 30.10R KINSTON CLEAR 41 37 87 CALM 30.09R NEW BERN CLEAR 46 46 100 CALM 30.09R RICHLANDS CLEAR 44 42 93 CALM 30.08S ROCKY MOUNT CLEAR 49 35 58 N10 30.11R WASHINGTON CLEAR 49 40 70 NE8 30.09R WHITEVILLE CLEAR 49 45 85 CALM 30.08S $$ AMZ130-135-150-152-154-156-158-170-250-252-270-ANZ085-086-088-633-658-670-230300- MARINE OBSERVATIONS STATION/POSITION TIME TEMP WIND PRES WAVE SWELL AIR SEA DIR/SP/G HT/PER HT/PER (UTC) (F) (DEG/KT/KT) (MB) (FT/S) (FT/S) CHESAPEAKE LIGHT NOT AVBL 64 E VA BEACH 0150 54 62 350/ 21/ 27 1018.0 9/ 6 DUCK 0200 53 59 10/ 20/ 25 1018.2 2 E DUCK 0200 61 N/A 7/ 6 2/11 OREGON INLET 0200 54 56 10/ 16/ 20 1018.6 13E OREGON INLT 0148 66 N/A 8/ 7 7/ 7 HATTERAS CG 0200 56 60 30/ 14/ 21 1017.9 DIAMOND BUOY 0210 61 73 10/ 19/ 23 1017.9 CAPE LOOKOUT 0200 40/ 14/ 17 1018.2 BEAUFORT LAB 0200 54 61 20/ 3/ 4 1018.0 30 SE NEW RVR IN 0208 62 66 60/ 12/ 17 1017.7 30 SE NEW RVR IN 0200 66 N/A 4/ 9 2/11 27 SE WRIGHTSVLE 0208 63 69 20/ 19/ 25 1017.1 5 SE WRIGHTSVLE 0208 60 63 360/ 14/ 17 1017.6 225 S CAPE HAT 0150 72 76 10/ 8/ 10 1014.4 6/ 8 7/ 8 41 SE CHARLESTON 0210 68 75 20/ 10/ 14 1016.8 $$

USA.gov is the U.S. government's official web portal to all federal, state and local government web resources and services.